sat.trackr.live / text

‹ back to catalog

STARLINK-35332

NORAD 65887 · 2025-224F

PAYLOAD ACTIVE UNKNOWN

§ Identity

Operator
Country
US
Launch date
2025-10-07
Launch site
AFETR
Launch vehicle
Mass (kg)
RCS (m²)

Purposes: comms

External: N2YO · Heavens-Above · Gunter

§ Orbital elements

Epoch: 2026-05-25T01:21:28.158624Z

Period
93.85 min
Inclination
53.1596°
Eccentricity
0.0001154
Mean motion
15.34404780 rev/d
Perigee alt
461.9 km
Apogee alt
463.5 km
Semi-major
6,840.8 km
B*
1.1966e-3
RAAN
15.4158°
Arg perigee
91.5890°
Mean anomaly
268.5244°
Rev number
3,656

§ Raw data

STARLINK-353321 65887U 25224F   26145.05657591  .00040277  00000+0  11966-2 0  99992 65887  53.1596  15.4158 0001154  91.5890 268.5244 15.34404780 36569

JSON: /api/v1/satellites/65887 · /tle

For live sub-satellite position, see the globe view (requires WebGL).

§ Visibility from observer

Set your observer location to see the next 7 days of passes ≥ 10°. The values pass through the URL so the page stays shareable.

No JS? Fill the form by hand. The geolocation button needs JavaScript.